CW2434 Weather Reports


Display with metric or nautical units.
time (UTC)temp
F
wind
direction
speed
MPH
gust
MPH
rain 1hr
in
rain 24hr
in
rain mn
in
humidity
%
barometer
mb
20260904160055 74 0 2.0 12.0 0.00 0.46 0.46 73 1012.3
20260904154554 74 320 5.0 13.0 0.00 0.46 0.46 73 1012.7
20260904153059 73 15 3.0 14.0 0.00 0.46 0.46 76 1012.7
20260904151555 73 334 5.0 11.0 0.00 0.46 0.46 79 1012.8
20260904150054 72 299 5.0 13.0 0.00 0.46 0.46 79 1012.9
20260904144559 72 343 5.0 12.0 0.00 0.46 0.46 80 1013.0
20260904143055 71 317 3.0 11.0 0.00 0.46 0.46 84 1012.9
20260904141600 71 253 3.0 12.0 0.00 0.46 0.46 88 1013.0
20260904140108 70 5 4.0 11.0 0.00 0.46 0.46 92 1012.9
20260904134614 70 352 2.0 10.0 0.00 0.46 0.46 94 1012.6
20260904133059 70 278 1.0 5.0 0.00 0.46 0.46 95 1012.8
20260904131554 70 0 0.0 12.0 0.00 0.46 0.46 96 1012.8
20260904130100 69 360 0.0 7.0 0.00 0.46 0.46 96 1012.7
20260904124613 69 0 0.0 4.0 0.00 0.46 0.46 97 1012.8
20260904123100 69 0 0.0 2.0 0.00 0.46 0.46 96 1012.8
20260904121558 69 0 0.0 3.0 0.00 0.46 0.46 97 1012.5
20260904120100 69 0 0.0 0.0 0.00 0.46 0.46 97 1012.4
20260904114602 69 0 0.0 0.0 0.00 0.46 0.46 96 1012.4
20260904113100 69 0 0.0 0.0 0.00 0.46 0.46 96 1012.4
20260904111601 69 0 0.0 0.0 0.00 0.46 0.46 96 1012.3
20260904104605 69 0 0.0 2.0 0.00 0.46 0.46 96 1012.0
20260904103054 69 0 0.0 0.0 0.00 0.46 0.46 96 1011.8
20260904101601 69 0 0.0 0.0 0.00 0.46 0.46 96 1011.8
20260904094601 69 0 0.0 0.0 0.00 0.47 0.46 96 1011.6
20260904093102 69 0 0.0 0.0 0.00 0.47 0.46 96 1011.5
20260904091604 69 0 0.0 0.0 0.01 0.47 0.46 96 1011.5
20260904090105 69 0 0.0 0.0 0.01 0.47 0.46 96 1011.2
20260904084601 69 0 0.0 0.0 0.01 0.48 0.46 96 1011.1
20260904083149 69 0 0.0 0.0 0.02 0.48 0.46 96 1010.8
20260904081609 69 0 0.0 1.0 0.13 0.47 0.45 96 1010.7
20260904074559 70 0 0.0 0.0 0.41 0.48 0.45 96 1010.7
20260904073104 70 0 0.0 0.0 0.44 0.47 0.44 96 1010.8
20260904071618 70 0 0.0 3.0 0.32 0.35 0.32 96 1011.7
20260904070117 70 0 0.0 0.0 0.20 0.23 0.20 96 1011.6
20260904064603 70 0 0.0 0.0 0.04 0.07 0.04 96 1011.6
20260904063104 70 0 0.0 0.0 0.00 0.03 0.00 96 1011.6
20260904061552 70 0 0.0 0.0 0.00 0.03 0.00 95 1011.4
20260904060057 70 0 0.0 0.0 0.00 0.03 0.00 96 1011.6
20260904054555 70 0 0.0 0.0 0.00 0.11 0.00 95 1011.6
20260904053104 70 0 0.0 0.0 0.00 0.11 0.00 95 1011.7
20260904051558 70 0 0.0 0.0 0.00 0.11 0.00 95 1011.8
20260904050058 70 0 0.0 0.0 0.00 0.11 0.00 95 1012.2
20260904044551 70 0 0.0 0.0 0.00 0.20 0.00 95 1012.2
20260904043103 70 0 0.0 0.0 0.00 0.20 0.00 95 1012.2
20260904041556 71 0 0.0 0.0 0.00 0.20 0.00 95 1012.1
20260904040108 71 0 0.0 0.0 0.00 0.20 0.00 94 1012.4
20260904034554 71 0 0.0 0.0 0.00 0.20 0.20 94 1012.5
20260904033105 71 0 0.0 0.0 0.00 0.20 0.20 94 1012.5
20260904031608 71 0 0.0 0.0 0.00 0.20 0.20 95 1012.7
20260904024556 71 0 0.0 0.0 0.00 0.20 0.20 94 1013.2
20260904023054 71 0 0.0 0.0 0.00 0.20 0.20 94 1013.0
20260904021601 71 0 0.0 0.0 0.00 0.20 0.20 94 1013.0
20260904020058 71 0 0.0 0.0 0.00 0.20 0.20 93 1013.3
20260904014606 71 0 0.0 0.0 0.00 0.20 0.20 93 1013.2
20260904013055 71 0 0.0 0.0 0.00 0.20 0.20 93 1013.2
20260904011556 71 0 0.0 0.0 0.00 0.20 0.20 93 1013.2
20260904010056 71 0 0.0 0.0 0.00 0.20 0.20 93 1013.2
20260904004557 71 0 0.0 0.0 0.00 0.20 0.20 92 1013.2
20260904003057 72 0 0.0 0.0 0.00 0.20 0.20 91 1013.0
20260904001555 72 0 0.0 0.0 0.00 0.20 0.20 92 1012.9
20260903234557 73 0 0.0 0.0 0.00 0.20 0.20 90 1012.7
20260903233055 74 0 0.0 0.0 0.00 0.20 0.20 89 1012.4
20260903231557 75 0 0.0 0.0 0.00 0.20 0.20 88 1012.3
20260903230058 75 0 0.0 2.0 0.00 0.20 0.20 88 1012.4
20260903224557 76 0 0.0 0.0 0.00 0.20 0.20 87 1012.6
20260903223058 76 0 0.0 3.0 0.00 0.20 0.20 88 1012.5
20260903221556 76 0 0.0 2.0 0.00 0.20 0.20 84 1012.5
20260903220106 77 0 0.0 0.0 0.00 0.20 0.20 84 1012.7
20260903214606 77 0 0.0 1.0 0.00 0.20 0.20 83 1012.9
20260903213054 77 0 0.0 2.0 0.00 0.20 0.20 82 1012.8
20260903211608 78 0 0.0 5.0 0.00 0.20 0.20 81 1012.7
20260903210059 79 215 0.0 4.0 0.00 0.20 0.20 81 1012.4
20260903204604 80 109 1.0 3.0 0.00 0.20 0.20 78 1012.7
20260903203103 78 0 0.0 1.0 0.00 0.20 0.20 80 1012.8
20260903201600 77 0 0.0 0.0 0.00 0.20 0.20 85 1012.7
20260903200104 77 0 0.0 2.0 0.00 0.20 0.20 84 1013.1
20260903194601 77 0 0.0 4.0 0.00 0.20 0.20 82 1013.0
20260903193056 77 277 0.0 3.0 0.00 0.20 0.20 83 1013.0
20260903191602 76 0 0.0 2.0 0.00 0.20 0.20 84 1013.2
20260903190058 77 0 0.0 0.0 0.00 0.20 0.20 84 1013.2
20260903184601 77 0 0.0 1.0 0.00 0.27 0.20 84 1013.3
20260903183100 77 0 0.0 0.0 0.00 0.27 0.20 82 1013.4
20260903181601 77 228 3.0 6.0 0.00 0.27 0.20 82 1013.6
20260903180057 76 0 0.0 3.0 0.00 0.27 0.20 82 1013.5
20260903174601 75 264 0.0 4.0 0.00 0.27 0.20 84 1013.6
20260903173052 75 264 0.0 3.0 0.00 0.27 0.20 85 1013.7
20260903171600 75 276 2.0 8.0 0.00 0.27 0.20 82 1014.0
20260903170103 76 272 3.0 10.0 0.00 0.27 0.20 82 1014.1
20260903164602 75 244 4.0 8.0 0.00 0.27 0.20 84 1014.3
20260903163053 74 264 3.0 9.0 0.00 0.27 0.20 85 1014.4
20260903161556 73 267 4.0 10.0 0.00 0.27 0.20 86 1014.4